TimeEST,TemperatureF,Dew PointF,Humidity,Sea Level PressureIn,VisibilityMPH,Wind Direction,Wind SpeedMPH,Gust SpeedMPH,PrecipitationIn,Events,Conditions,WindDirDegrees,DateUTC
12:56 AM,27.0,15.1,61,30.19,10.0,West,5.8,-,N/A,,Clear,260,2013-12-11 05:56:00
1:56 AM,27.0,12.0,53,30.23,10.0,West,10.4,-,N/A,,Clear,280,2013-12-11 06:56:00
2:56 AM,27.0,12.0,53,30.27,10.0,West,4.6,-,N/A,,Clear,260,2013-12-11 07:56:00
3:56 AM,26.1,12.9,58,30.28,10.0,WSW,6.9,-,N/A,,Clear,250,2013-12-11 08:56:00
4:56 AM,25.0,14.0,63,30.29,10.0,SSW,8.1,-,N/A,,Clear,210,2013-12-11 09:56:00
5:56 AM,27.0,10.9,51,30.32,10.0,WSW,8.1,-,N/A,,Clear,250,2013-12-11 10:56:00
6:56 AM,26.1,12.0,55,30.34,10.0,West,5.8,-,N/A,,Clear,260,2013-12-11 11:56:00
7:56 AM,25.0,14.0,63,30.36,10.0,SW,6.9,-,N/A,,Clear,230,2013-12-11 12:56:00
8:56 AM,27.0,12.0,53,30.37,10.0,West,6.9,-,N/A,,Clear,280,2013-12-11 13:56:00
9:56 AM,28.9,12.0,49,30.37,10.0,West,11.5,19.6,N/A,,Clear,270,2013-12-11 14:56:00
10:56 AM,30.0,12.0,47,30.35,10.0,West,11.5,19.6,N/A,,Clear,270,2013-12-11 15:56:00
11:56 AM,32.0,10.9,42,30.31,10.0,West,10.4,17.3,N/A,,Clear,260,2013-12-11 16:56:00
12:56 PM,33.1,15.1,48,30.28,10.0,WSW,8.1,-,N/A,,Clear,250,2013-12-11 17:56:00
1:56 PM,34.0,14.0,44,30.28,10.0,SW,5.8,-,N/A,,Partly Cloudy,230,2013-12-11 18:56:00
2:56 PM,35.1,14.0,42,30.26,10.0,Variable,4.6,-,N/A,,Scattered Clouds,0,2013-12-11 19:56:00
3:56 PM,34.0,15.1,46,30.24,10.0,SW,8.1,-,N/A,,Scattered Clouds,230,2013-12-11 20:56:00
4:56 PM,33.1,15.1,48,30.25,10.0,SSW,5.8,-,N/A,,Mostly Cloudy,210,2013-12-11 21:56:00
5:56 PM,30.9,17.1,57,30.25,10.0,SW,12.7,-,N/A,,Scattered Clouds,220,2013-12-11 22:56:00
6:56 PM,28.9,15.1,56,30.27,10.0,NW,3.5,-,N/A,,Scattered Clouds,310,2013-12-11 23:56:00
7:56 PM,27.0,17.1,66,30.27,10.0,Calm,Calm,-,N/A,,Mostly Cloudy,0,2013-12-12 00:56:00
8:56 PM,27.0,18.0,69,30.27,10.0,Calm,Calm,-,N/A,,Mostly Cloudy,0,2013-12-12 01:56:00
9:56 PM,27.0,16.0,63,30.25,10.0,ESE,4.6,-,N/A,,Mostly Cloudy,120,2013-12-12 02:56:00
10:56 PM,28.0,18.0,66,30.26,10.0,Calm,Calm,-,N/A,,Mostly Cloudy,0,2013-12-12 03:56:00
11:56 PM,28.0,19.9,72,30.28,10.0,Calm,Calm,-,N/A,,Overcast,0,2013-12-12 04:56:00